Regional Weather Roundup
Issued by NWS

Home | Current Version | Previous Version | Graphics & Text | Print | Product List | Glossary On
Versions: 1 2 3 4 5 6 7 8 9 10 11 12 13 14 15 16 17 18 19 20 21 22 23 24 25 26 27 28 29 30 31 32 33 34 35 36 37 38 39 40 41 42 43 44 45 46 47 48 49 50
000
ASUS43 KLMK 242310
RWRKY
KENTUCKY REGIONAL WEATHER ROUNDUP
NATIONAL WEATHER SERVICE LOUISVILLE KY
700 PM EDT THU APR 24 2014

NOTE "FAIR" INDICATES FEW OR NO CLOUDS BELOW 12,000 FEET
WITH NO SIGNIFICANT WEATHER AND/OR OBSTRUCTIONS TO VISIBILITY.

KYZ001>023-026-027-061>063-070>075-250000-
WESTERN AND SOUTH CENTRAL KENTUCKY

CITY           SKY/WX    TMP DP  RH WIND       PRES   REMARKS
PADUCAH        PTSUNNY   77  50  38 S14G21    29.69F
HENDERSON      CLOUDY    75  41  29 S12G17    29.71F
OWENSBORO      PTSUNNY   75  38  26 S15       29.75F
HOPKINSVILLE   PTSUNNY   78  44  29 S12G18    29.75F
BOWLING GREEN  PTSUNNY   75  40  28 S9        29.79F
GLASGOW        PTSUNNY   76  38  24 S9        29.81F
$$

KYZ024-025-028>034-038-045-046-053-250000-
NORTH CENTRAL KENTUCKY

CITY           SKY/WX    TMP DP  RH WIND       PRES   REMARKS
LOUISVILLE/SDF CLOUDY    75  41  29 SE10      29.80F
LOUISVILLE/LOU CLOUDY    76  39  26 SE9       29.80F
FORT KNOX      CLOUDY    75  40  28 SE14      29.78F
$$

KYZ035>037-039>044-047>052-055>060-089>105-250000-
NORTHEAST KENTUCKY

CITY           SKY/WX    TMP DP  RH WIND       PRES   REMARKS
LEXINGTON      PTSUNNY   71  39  31 E7        29.86F
COVINGTON      CLOUDY    65  33  30 SE14      29.87F
FRANKFORT      CLOUDY    67  44  43 E8        29.84F
$$

KYZ054-064>069-076>088-106>120-250000-
SOUTHEAST KENTUCKY

CITY           SKY/WX    TMP DP  RH WIND       PRES   REMARKS
JACKSON        PTSUNNY   73  29  19 CALM      29.89F
LONDON         CLOUDY    76  35  22 S6        29.86F
SOMERSET       PTSUNNY   73  32  21 CALM      29.86F
MIDDLESBORO    PTSUNNY   75  33  21 S3        29.89S
MONTICELLO     MOCLDY    75  39  27 S8        29.86F
$$




USA.gov is the U.S. government's official web portal to all federal, state and local government web resources and services.